Asheville, NC

11:09 PM EST on November 19, 2019 (GMT -0500)
Asheville Regional

Weather History for KAVL - October, 2019

Change the Weather History Date:

Tuesday, October 22, 2019

  Actual Average Record
Temperature  
Mean Temperature 57 °F 54 °F  
Max Temperature 69 °F 67 °F 82 °F (1931)
Min Temperature 45 °F 43 °F 23 °F (1952)
Degree Days  
Heating Degree Days 8 11  
Month to date heating degree days 85 169  
Since 1 July heating degree days 87 226  
Cooling Degree Days 0 0  
Month to date cooling degree days 54 7  
Year to date cooling degree days 1327 859  
Growing Degree Days 8 (Base 50)    
Moisture  
Dew Point 55 °F    
Average Humidity 61    
Maximum Humidity 93    
Minimum Humidity 29    
Precipitation  
Precipitation 1.36 in 0.09 in 1.52 in (1990)
Month to date precipitation 3.64 2.09  
Year to date precipitation 46.25 37.51  
Snow  
Snow 0.00 in 0.00 in T in (1937)
Month to date snowfall 0.0 0.0  
Since 1 July snowfall 0.0 0.0  
Since 1 September snowfall 0.0 0.0  
Snow Depth 0.00 in    
Sea Level Pressure  
Sea Level Pressure 29.90 in    
Wind  
Wind Speed 9 mph (NNE)    
Max Wind Speed 25 mph    
Max Gust Speed 35 mph    
Visibility 7 miles    
Events Rain    
T = Trace of Precipitation, MM = Missing Value Source: NWS Daily Summary

Daily Weather History Graph

Daily Weather History Graph

Search for Another Location

Airport or City:

Astronomy

Oct. 22, 2019 Rise Set
Actual Time 7:42 AM EDT 6:46 PM EDT
Civil Twilight 7:16 AM EDT 7:12 PM EDT
Nautical Twilight 6:46 AM EDT 7:41 PM EDT
Astronomical Twilight 6:17 AM EDT 8:11 PM EDT
Moon 1:08 AM EDT (10/22) 3:38 PM EDT (10/22)
Length of Visible Light 11h 55m
Length of Day
11h 04m
Last Quarter, 37% of the Moon is Illuminated
Oct 22
Last Quarter
Oct 27
New
Nov 4
First Quarter
Nov 12
Full
Nov 19
Last Quarter

Hourly Weather History & Observations

Time (EDT) Temp. Dew Point Humidity Pressure Visibility Wind Dir Wind Speed Gust Speed Precip Events Conditions
12:54 AM 62.1 °F 59.0 °F 90% 29.95 in 10.0 mi ESE 4.6 mph - N/A   Overcast
1:10 AM 63.0 °F 59.0 °F 87% 30.00 in 10.0 mi Variable 5.8 mph - N/A   Overcast
1:30 AM 63.0 °F 59.0 °F 87% 30.00 in 10.0 mi ESE 4.6 mph - N/A   Overcast
1:54 AM 63.0 °F 60.1 °F 90% 29.94 in 10.0 mi SSE 5.8 mph - N/A   Overcast
2:51 AM 62.6 °F 60.8 °F 94% 29.96 in 8.0 mi SE 6.9 mph - 0.00 in Rain Light Rain
2:54 AM 63.0 °F 60.1 °F 90% 29.91 in 6.0 mi SE 5.8 mph - 0.00 in Rain Light Rain
3:06 AM 63.0 °F 60.1 °F 90% 29.95 in 8.0 mi SE 6.9 mph - 0.00 in Rain Light Rain
3:18 AM 63.0 °F 60.1 °F 90% 29.95 in 9.0 mi SE 6.9 mph - 0.00 in   Overcast
3:54 AM 63.0 °F 61.0 °F 93% 29.88 in 7.0 mi SSE 6.9 mph - 0.01 in   Overcast
4:24 AM 63.0 °F 61.0 °F 93% 29.91 in 5.0 mi SE 5.8 mph - 0.00 in Rain Rain
4:54 AM 64.0 °F 61.0 °F 90% 29.86 in 10.0 mi SSE 6.9 mph - 0.02 in   Overcast
5:42 AM 64.0 °F 61.0 °F 90% 29.89 in 10.0 mi SE 6.9 mph - N/A   Overcast
5:54 AM 64.0 °F 61.0 °F 90% 29.84 in 4.0 mi SSE 5.8 mph - 0.00 in Rain Rain
6:04 AM 64.0 °F 62.1 °F 93% 29.90 in 6.0 mi SSE 6.9 mph - 0.02 in Rain Light Rain
6:54 AM 64.0 °F 62.1 °F 93% 29.83 in 3.0 mi South 3.5 mph - 0.10 in Rain Light Rain
7:02 AM 64.0 °F 62.1 °F 93% 29.89 in 4.0 mi WSW 6.9 mph - 0.00 in Rain Rain
7:09 AM 64.0 °F 62.1 °F 93% 29.89 in 1.8 mi South 3.5 mph - 0.02 in Rain Heavy Rain
7:14 AM 64.0 °F 62.1 °F 93% 29.89 in 1.2 mi Variable 4.6 mph - 0.08 in Rain Heavy Rain
7:25 AM 64.0 °F 62.1 °F 93% 29.89 in 1.0 mi South 5.8 mph - 0.28 in Rain Heavy Rain
7:33 AM 64.0 °F 62.1 °F 93% 29.89 in 2.0 mi South 8.1 mph - 0.48 in Rain Light Rain
7:41 AM 64.0 °F 62.1 °F 93% 29.89 in 8.0 mi SSE 8.1 mph - 0.48 in Rain Light Rain
7:54 AM 64.9 °F 62.1 °F 90% 29.83 in 10.0 mi South 9.2 mph - 0.48 in   Overcast
8:47 AM 64.9 °F 62.1 °F 90% 29.88 in 10.0 mi SE 4.6 mph - N/A   Overcast
8:54 AM 64.9 °F 62.1 °F 90% 29.83 in 10.0 mi SE 3.5 mph - N/A   Overcast
9:06 AM 64.9 °F 62.1 °F 90% 29.88 in 9.0 mi Calm Calm - 0.00 in Rain Light Rain
9:29 AM 64.9 °F 62.1 °F 90% 29.88 in 1.8 mi Calm Calm - 0.04 in Rain Rain
9:37 AM 62.1 °F 59.0 °F 90% 29.89 in 1.0 mi NNW 18.4 mph - 0.09 in Rain Heavy Rain
9:48 AM 57.2 °F 53.6 °F 88% 29.89 in 1.8 mi NNW 19.6 mph 24.2 mph 0.17 in Rain Rain
9:54 AM 57.0 °F 54.0 °F 89% 29.86 in 1.5 mi NNW 23.0 mph 28.8 mph 0.19 in Rain Heavy Rain
9:56 AM 57.0 °F 54.0 °F 89% 29.91 in 1.2 mi NW 24.2 mph - 0.02 in Rain Heavy Rain
10:03 AM 57.0 °F 53.1 °F 87% 29.89 in 1.0 mi North 20.7 mph 34.5 mph 0.09 in Rain Heavy Rain
10:11 AM 55.9 °F 53.1 °F 90% 29.92 in 0.8 mi NNW 8.1 mph 28.8 mph 0.16 in Rain Heavy Rain
10:28 AM 55.9 °F 54.0 °F 93% 29.93 in 1.5 mi NNW 15.0 mph - 0.53 in Rain Light Rain
10:30 AM 55.9 °F 54.0 °F 93% 29.93 in 2.0 mi NNW 17.3 mph - 0.53 in Rain Light Rain
10:37 AM 55.9 °F 53.1 °F 90% 29.93 in 10.0 mi NNW 16.1 mph - 0.54 in Rain Light Rain
10:45 AM 55.9 °F 53.1 °F 90% 29.92 in 8.0 mi North 12.7 mph - 0.54 in Rain Light Rain
10:54 AM 55.9 °F 53.1 °F 90% 29.88 in 7.0 mi NNW 17.3 mph - 0.55 in Rain Rain
11:03 AM 57.0 °F 54.0 °F 89% 29.92 in 2.5 mi North 12.7 mph - 0.01 in Rain Light Rain
11:47 AM 60.1 °F 55.0 °F 83% 29.92 in 10.0 mi NNW 13.8 mph - 0.01 in   Mostly Cloudy
11:54 AM 61.0 °F 55.0 °F 81% 29.87 in 10.0 mi NNW 17.3 mph - 0.01 in   Mostly Cloudy
12:54 PM 64.0 °F 54.0 °F 70% 29.85 in 10.0 mi NNW 16.1 mph - N/A   Partly Cloudy
1:54 PM 66.9 °F 53.1 °F 61% 29.82 in 10.0 mi North 12.7 mph 18.4 mph N/A   Clear
2:54 PM 68.0 °F 51.1 °F 55% 29.81 in 10.0 mi North 12.7 mph - N/A   Clear
3:54 PM 69.1 °F 48.0 °F 47% 29.81 in 10.0 mi NNW 8.1 mph - N/A   Clear
4:54 PM 69.1 °F 39.9 °F 35% 29.83 in 10.0 mi North 9.2 mph - N/A   Clear
5:54 PM 66.0 °F 34.0 °F 30% 29.86 in 10.0 mi North 11.5 mph 19.6 mph N/A   Clear
6:54 PM 60.1 °F 36.0 °F 41% 29.89 in 10.0 mi NNW 8.1 mph - N/A   Clear
7:54 PM 59.0 °F 36.0 °F 42% 29.93 in 10.0 mi North 8.1 mph - N/A   Clear
8:54 PM 53.1 °F 39.9 °F 61% 29.95 in 10.0 mi North 6.9 mph - N/A   Clear
9:54 PM 48.9 °F 41.0 °F 74% 29.99 in 10.0 mi Calm Calm - N/A   Clear
10:54 PM 48.0 °F 41.0 °F 77% 30.01 in 10.0 mi Calm Calm - N/A   Clear
11:54 PM 48.0 °F 42.1 °F 80% 30.01 in 10.0 mi North 5.8 mph - N/A   Clear